KQA650 HKJK-HKKI

Flight info

Callsign KQA650
Flight time 0h 32m
Altitude 24000
Route APKUB1A APKUB DCT NEVON NEVON1B
Aircraft B738/M-SDE2E3FGHIRWXY/LB1

Departure

Time 2026-04-22 13:46
Airport Jomo Kenyatta International Airport (HKJK)

Arrival

Time 2026-04-22 14:19
Airport Kisumu International Airport (HKKI)
Time Latitude Longitude Altitude Speed Heading
2026-04-22 13:17 -1.33051 36.92737 5323 ft 0 kts 358°
2026-04-22 13:40 -1.33043 36.92737 5323 ft 2 kts 359°
2026-04-22 13:40 -1.33017 36.92741 5320 ft 5 kts 33°
2026-04-22 13:41 -1.32995 36.92773 5319 ft 7 kts 20°
2026-04-22 13:41 -1.32942 36.92764 5319 ft 9 kts 337°
2026-04-22 13:41 -1.32877 36.92728 5320 ft 12 kts 323°
2026-04-22 13:41 -1.32814 36.92662 5323 ft 14 kts 305°
2026-04-22 13:42 -1.32772 36.92570 5320 ft 14 kts 284°
2026-04-22 13:42 -1.32766 36.92472 5316 ft 14 kts 265°
2026-04-22 13:42 -1.32747 36.92394 5321 ft 12 kts 323°
2026-04-22 13:42 -1.32683 36.92344 5323 ft 11 kts 303°
2026-04-22 13:43 -1.32700 36.92275 5321 ft 11 kts 235°
2026-04-22 13:43 -1.32742 36.92217 5325 ft 10 kts 234°
2026-04-22 13:43 -1.32786 36.92157 5317 ft 11 kts 233°
2026-04-22 13:43 -1.32835 36.92090 5319 ft 13 kts 234°
2026-04-22 13:44 -1.32892 36.92012 5325 ft 15 kts 235°
2026-04-22 13:44 -1.32953 36.91929 5331 ft 14 kts 233°
2026-04-22 13:44 -1.33007 36.91847 5333 ft 14 kts 264°
2026-04-22 13:44 -1.32944 36.91781 5336 ft 13 kts 325°
2026-04-22 13:45 -1.32863 36.91724 5335 ft 15 kts 324°
2026-04-22 13:45 -1.32771 36.91660 5337 ft 15 kts 337°
2026-04-22 13:45 -1.32711 36.91703 5336 ft 13 kts 54°
2026-04-22 13:45 -1.32602 36.91854 5329 ft 54 kts 54°
2026-04-22 13:46 -1.32256 36.92326 5317 ft 112 kts 54°
2026-04-22 13:46 -1.31698 36.93090 5303 ft 159 kts 53°
2026-04-22 13:46 -1.30987 36.94059 5618 ft 179 kts 53°
2026-04-22 13:46 -1.30218 36.95067 6268 ft 184 kts 54°
2026-04-22 13:47 -1.29442 36.96096 6851 ft 192 kts 57°
2026-04-22 13:47 -1.28612 36.97220 6964 ft 215 kts 56°
2026-04-22 13:47 -1.27705 36.98443 7275 ft 226 kts 55°
2026-04-22 13:47 -1.26731 36.99772 7441 ft 249 kts 56°
2026-04-22 13:48 -1.25667 37.01231 7704 ft 268 kts 56°
2026-04-22 13:48 -1.24535 37.02766 8118 ft 281 kts 55°
2026-04-22 13:48 -1.23377 37.04326 8840 ft 279 kts 55°
2026-04-22 13:48 -1.22211 37.05903 9418 ft 285 kts 56°
2026-04-22 13:49 -1.21023 37.07510 10019 ft 289 kts 56°
2026-04-22 13:49 -1.19759 37.09077 10512 ft 298 kts 43°
2026-04-22 13:49 -1.17851 37.09983 10830 ft 315 kts
2026-04-22 13:49 -1.15657 37.09842 11476 ft 319 kts 346°
2026-04-22 13:50 -1.13640 37.08887 12079 ft 326 kts 325°
2026-04-22 13:50 -1.12289 37.07571 12595 ft 331 kts 306°
2026-04-22 13:50 -1.11292 37.05456 13301 ft 333 kts 283°
2026-04-22 13:50 -1.11000 37.03133 13873 ft 339 kts 272°
2026-04-22 13:51 -1.10948 37.00760 14403 ft 345 kts 270°
2026-04-22 13:51 -1.10957 36.98353 14955 ft 348 kts 270°
2026-04-22 13:51 -1.10971 36.95965 15614 ft 349 kts 270°
2026-04-22 13:51 -1.10972 36.93518 16150 ft 353 kts 271°
2026-04-22 13:52 -1.10959 36.91065 16799 ft 355 kts 271°
2026-04-22 13:52 -1.10933 36.88577 17320 ft 359 kts 271°
2026-04-22 13:52 -1.10899 36.86078 18034 ft 360 kts 271°
2026-04-22 13:52 -1.10859 36.83569 18643 ft 361 kts 272°
2026-04-22 13:53 -1.10816 36.81039 19083 ft 366 kts 272°
2026-04-22 13:53 -1.10770 36.78470 19517 ft 370 kts 271°
2026-04-22 13:53 -1.10724 36.75888 20026 ft 374 kts 272°
2026-04-22 13:53 -1.10676 36.73257 20318 ft 383 kts 272°
2026-04-22 13:54 -1.10627 36.70594 20852 ft 383 kts 271°
2026-04-22 13:54 -1.10579 36.67941 21503 ft 381 kts 271°
2026-04-22 13:54 -1.10530 36.65271 21842 ft 389 kts 271°
2026-04-22 13:54 -1.10481 36.62556 22294 ft 391 kts 271°
2026-04-22 13:55 -1.10431 36.59850 22659 ft 397 kts 271°
2026-04-22 13:55 -1.10381 36.57082 23140 ft 399 kts 271°
2026-04-22 13:55 -1.10330 36.54289 23400 ft 407 kts 271°
2026-04-22 13:55 -1.10277 36.51422 23511 ft 418 kts 271°
2026-04-22 13:56 -1.10224 36.48491 23798 ft 423 kts 271°
2026-04-22 13:56 -1.10169 36.45530 23977 ft 426 kts 271°
2026-04-22 13:56 -1.10116 36.42608 24070 ft 420 kts 271°
2026-04-22 13:56 -1.10062 36.39656 24093 ft 428 kts 271°
2026-04-22 13:57 -1.10007 36.36662 24096 ft 433 kts 271°
2026-04-22 13:57 -1.09952 36.33647 24077 ft 434 kts 271°
2026-04-22 13:57 -1.09897 36.30633 24073 ft 434 kts 271°
2026-04-22 13:57 -1.09841 36.27626 24070 ft 433 kts 271°
2026-04-22 13:58 -1.09786 36.24616 24083 ft 431 kts 271°
2026-04-22 13:58 -1.09731 36.21630 24071 ft 430 kts 271°
2026-04-22 13:58 -1.09676 36.18636 24075 ft 430 kts 271°
2026-04-22 13:58 -1.09485 36.15702 24062 ft 430 kts 282°
2026-04-22 13:59 -1.08485 36.12906 24079 ft 427 kts 301°
2026-04-22 13:59 -1.06837 36.10446 24094 ft 426 kts 308°
2026-04-22 13:59 -1.05079 36.08058 24088 ft 427 kts 308°
2026-04-22 13:59 -1.03296 36.05675 24086 ft 429 kts 308°
2026-04-22 14:00 -1.01511 36.03285 24084 ft 430 kts 308°
2026-04-22 14:00 -0.99792 36.00967 24085 ft 430 kts 308°
2026-04-22 14:00 -0.98068 35.98623 24091 ft 430 kts 308°
2026-04-22 14:00 -0.96302 35.96210 24084 ft 429 kts 308°
2026-04-22 14:01 -0.94543 35.93794 24075 ft 428 kts 307°
2026-04-22 14:01 -0.92797 35.91394 24078 ft 427 kts 307°
2026-04-22 14:01 -0.91055 35.88995 24079 ft 425 kts 307°
2026-04-22 14:01 -0.89320 35.86608 24070 ft 425 kts 307°
2026-04-22 14:02 -0.87587 35.84222 24068 ft 424 kts 307°
2026-04-22 14:02 -0.85857 35.81841 24070 ft 423 kts 307°
2026-04-22 14:02 -0.84130 35.79465 24073 ft 422 kts 307°
2026-04-22 14:02 -0.82424 35.77118 24060 ft 412 kts 307°
2026-04-22 14:03 -0.80755 35.74820 23817 ft 405 kts 307°
2026-04-22 14:03 -0.79111 35.72558 23560 ft 400 kts 307°
2026-04-22 14:03 -0.77500 35.70343 23122 ft 398 kts 307°
2026-04-22 14:03 -0.75877 35.68111 22705 ft 395 kts 307°
2026-04-22 14:04 -0.74269 35.65900 22306 ft 392 kts 307°
2026-04-22 14:04 -0.72670 35.63700 21885 ft 390 kts 307°
2026-04-22 14:04 -0.71079 35.61513 21481 ft 388 kts 307°
2026-04-22 14:04 -0.69497 35.59335 21077 ft 386 kts 307°
2026-04-22 14:05 -0.67922 35.57171 20680 ft 385 kts 307°
2026-04-22 14:05 -0.66349 35.55006 20256 ft 383 kts 307°
2026-04-22 14:05 -0.63222 35.50705 19437 ft 382 kts 307°
2026-04-22 14:06 -0.61660 35.48557 19017 ft 382 kts 307°
2026-04-22 14:06 -0.60103 35.46415 18641 ft 380 kts 307°
2026-04-22 14:06 -0.58570 35.44307 18241 ft 379 kts 307°
2026-04-22 14:06 -0.57021 35.42177 17782 ft 378 kts 307°
2026-04-22 14:07 -0.55483 35.40061 17371 ft 375 kts 307°
2026-04-22 14:07 -0.53954 35.37958 16970 ft 373 kts 307°
2026-04-22 14:07 -0.52432 35.35863 16572 ft 371 kts 307°
2026-04-22 14:07 -0.50919 35.33782 16152 ft 369 kts 307°
2026-04-22 14:08 -0.49413 35.31711 15745 ft 367 kts 307°
2026-04-22 14:08 -0.47916 35.29651 15344 ft 366 kts 307°
2026-04-22 14:08 -0.46424 35.27599 14957 ft 365 kts 307°
2026-04-22 14:08 -0.44931 35.25546 14558 ft 363 kts 307°
2026-04-22 14:09 -0.43411 35.23532 14116 ft 363 kts 314°
2026-04-22 14:09 -0.41453 35.21962 13572 ft 364 kts 329°
2026-04-22 14:09 -0.39301 35.20617 13086 ft 364 kts 329°
2026-04-22 14:09 -0.37879 35.19729 12812 ft 362 kts 329°
2026-04-22 14:10 -0.35065 35.17956 12268 ft 358 kts 329°
2026-04-22 14:10 -0.32972 35.16622 11895 ft 355 kts 328°
2026-04-22 14:10 -0.31570 35.15723 11638 ft 353 kts 329°
2026-04-22 14:10 -0.29514 35.14401 11238 ft 350 kts 328°
2026-04-22 14:11 -0.27478 35.13087 10865 ft 346 kts 328°
2026-04-22 14:11 -0.25494 35.11806 10515 ft 341 kts 328°
2026-04-22 14:11 -0.23545 35.10547 10315 ft 326 kts 328°
2026-04-22 14:11 -0.21685 35.09346 10154 ft 310 kts 328°
2026-04-22 14:12 -0.19917 35.08204 10017 ft 295 kts 328°
2026-04-22 14:12 -0.18234 35.07117 9849 ft 284 kts 328°
2026-04-22 14:12 -0.16575 35.06047 9580 ft 283 kts 328°
2026-04-22 14:12 -0.14927 35.04984 9289 ft 281 kts 327°
2026-04-22 14:13 -0.13334 35.03860 8982 ft 281 kts 315°
2026-04-22 14:13 -0.12308 35.02212 8711 ft 281 kts 290°
2026-04-22 14:13 -0.11723 35.00347 8449 ft 282 kts 285°
2026-04-22 14:13 -0.11207 34.98523 8137 ft 278 kts 285°
2026-04-22 14:14 -0.10680 34.96681 7875 ft 269 kts 286°
2026-04-22 14:14 -0.10167 34.94926 7582 ft 258 kts 286°
2026-04-22 14:14 -0.09669 34.93243 7294 ft 247 kts 285°
2026-04-22 14:14 -0.09190 34.91633 7052 ft 236 kts 285°
2026-04-22 14:15 -0.08734 34.90106 6829 ft 223 kts 285°
2026-04-22 14:15 -0.08305 34.88672 6610 ft 213 kts 285°
2026-04-22 14:15 -0.07892 34.87283 6359 ft 202 kts 285°
2026-04-22 14:15 -0.07502 34.85985 6158 ft 187 kts 285°
2026-04-22 14:16 -0.07146 34.84795 5998 ft 168 kts 286°
2026-04-22 14:16 -0.06815 34.83693 5820 ft 161 kts 285°
2026-04-22 14:16 -0.06497 34.82630 5628 ft 160 kts 284°
2026-04-22 14:16 -0.06183 34.81566 5482 ft 162 kts 282°
2026-04-22 14:17 -0.06229 34.80463 5283 ft 161 kts 253°
2026-04-22 14:17 -0.06517 34.79373 5096 ft 166 kts 258°
2026-04-22 14:17 -0.06782 34.78236 4855 ft 168 kts 257°
2026-04-22 14:17 -0.07043 34.77125 4680 ft 164 kts 256°
2026-04-22 14:18 -0.07295 34.76022 4416 ft 161 kts 256°
2026-04-22 14:18 -0.07567 34.74945 4134 ft 159 kts 249°
2026-04-22 14:18 -0.08009 34.73952 3905 ft 154 kts 241°
2026-04-22 14:18 -0.08512 34.73044 3782 ft 141 kts 241°
2026-04-22 14:19 -0.08882 34.72356 3775 ft 82 kts 242°
2026-04-22 14:19 -0.09070 34.72005 3781 ft 47 kts 242°
2026-04-22 14:19 -0.09216 34.71734 3779 ft 42 kts 242°
2026-04-22 14:19 -0.09257 34.71658 3781 ft 40 kts 242°
2026-04-22 14:20 -0.09408 34.71315 3781 ft 31 kts 211°
2026-04-22 14:20 -0.09426 34.71306 3776 ft 31 kts 205°
2026-04-22 14:20 -0.09450 34.71297 3777 ft 30 kts 194°
2026-04-22 14:21 -0.09433 34.71426 3781 ft 19 kts 29°
2026-04-22 14:21 -0.09338 34.71513 3778 ft 18 kts 59°
2026-04-22 14:22 -0.09221 34.71730 3777 ft 17 kts 62°
2026-04-22 14:22 -0.09163 34.71834 3779 ft 17 kts 61°
2026-04-22 14:22 -0.08989 34.71862 3781 ft 15 kts
2026-04-22 14:23 -0.08925 34.71935 3777 ft 14 kts 62°
2026-04-22 14:23 -0.08879 34.72021 3780 ft 14 kts 62°
2026-04-22 14:23 -0.08834 34.72104 3777 ft 14 kts 62°
2026-04-22 14:23 -0.08785 34.72195 3775 ft 16 kts 62°
2026-04-22 14:24 -0.08730 34.72299 3775 ft 18 kts 61°
2026-04-22 14:24 -0.08668 34.72414 3783 ft 20 kts 62°
2026-04-22 14:24 -0.08600 34.72540 3777 ft 21 kts 62°
2026-04-22 14:24 -0.08534 34.72663 3782 ft 19 kts 62°
2026-04-22 14:25 -0.08474 34.72775 3778 ft 17 kts 62°
2026-04-22 14:25 -0.08423 34.72875 3780 ft 15 kts 63°
2026-04-22 14:25 -0.08297 34.72914 3782 ft 0 kts 65°
2026-04-22 14:25 -0.08296 34.72918 3780 ft 1 kts 65°
2026-04-22 14:26 -0.08295 34.72920 3780 ft 0 kts 66°